Time,TemperatureF,DewpointF,PressureIn,WindDirection,WindDirectionDegrees,WindSpeedMPH,WindSpeedGustMPH,Humidity,HourlyPrecipIn,Conditions,Clouds,dailyrainin,SoftwareType,DateUTC
2013-08-24 18:17:00,74.0,54.0,30.33,NE,45,3.3,4.0,51,0.00,,,0.00,Rainwise IP-100,2013-08-24 22:17:00,
2013-08-24 18:18:00,74.0,55.0,30.33,NE,45,4.4,4.4,52,0.00,,,0.00,Rainwise IP-100,2013-08-24 22:18:00,
2013-08-24 18:23:00,73.2,56.0,30.33,ENE,67,7.0,7.0,54,0.00,,,0.00,Rainwise IP-100,2013-08-24 22:23:00,
2013-08-24 18:28:00,72.3,54.0,30.33,ENE,67,1.6,7.0,54,0.00,,,0.00,Rainwise IP-100,2013-08-24 22:28:00,
2013-08-24 18:33:00,71.7,54.0,30.33,ENE,67,2.8,4.0,54,0.00,,,0.00,Rainwise IP-100,2013-08-24 22:33:00,
2013-08-24 18:38:00,71.3,54.0,30.33,South,180,0.0,4.0,55,0.00,,,0.00,Rainwise IP-100,2013-08-24 22:38:00,
2013-08-24 18:43:00,70.7,54.0,30.33,WSW,247,0.0,4.0,56,0.00,,,0.00,Rainwise IP-100,2013-08-24 22:43:00,
2013-08-24 18:48:00,70.4,54.0,30.33,WSW,247,0.0,0.0,57,0.00,,,0.00,Rainwise IP-100,2013-08-24 22:48:00,
2013-08-24 18:53:00,70.4,54.0,30.33,WSW,247,0.0,0.0,57,0.00,,,0.00,Rainwise IP-100,2013-08-24 22:53:00,
2013-08-24 19:05:00,70.4,54.0,30.33,WSW,247,0.0,0.0,57,0.00,,,0.00,Rainwise IP-100,2013-08-24 23:05:00,
2013-08-24 19:10:00,68.4,53.0,30.34,WSW,247,0.0,0.0,59,0.00,,,0.00,Rainwise IP-100,2013-08-24 23:10:00,
2013-08-24 19:15:00,68.2,54.0,30.34,South,180,0.0,3.0,62,0.06,,,0.01,Rainwise IP-100,2013-08-24 23:15:00,
2013-08-24 19:20:00,68.2,54.0,30.34,South,180,0.0,0.0,62,0.06,,,0.01,Rainwise IP-100,2013-08-24 23:20:00,
2013-08-24 19:45:00,68.2,54.0,30.34,South,180,0.0,0.0,62,0.06,,,0.01,Rainwise IP-100,2013-08-24 23:45:00,
2013-08-24 19:50:00,76.5,54.0,30.35,South,180,0.0,0.0,47,0.00,,,0.01,Rainwise IP-100,2013-08-24 23:50:00,
2013-08-24 19:55:00,76.5,54.0,30.35,South,180,0.0,0.0,47,0.00,,,0.01,Rainwise IP-100,2013-08-24 23:55:00,
2013-08-24 20:08:00,75.5,54.0,30.35,South,180,0.0,0.0,48,0.00,,,0.01,Rainwise IP-100,2013-08-25 00:08:00,
2013-08-24 20:13:00,75.5,55.0,30.35,South,180,0.0,0.0,49,0.00,,,0.01,Rainwise IP-100,2013-08-25 00:13:00,
2013-08-24 20:18:00,75.9,55.0,30.36,South,180,0.0,0.0,49,0.00,,,0.01,Rainwise IP-100,2013-08-25 00:18:00,
2013-08-24 20:23:00,76.3,56.0,30.36,South,180,0.0,0.0,49,0.00,,,0.01,Rainwise IP-100,2013-08-25 00:23:00,
2013-08-24 20:28:00,76.3,56.0,30.36,South,180,0.0,0.0,49,0.00,,,0.01,Rainwise IP-100,2013-08-25 00:28:00,
2013-08-24 20:45:00,76.1,55.0,30.36,South,180,0.0,0.0,49,0.00,,,0.01,Rainwise IP-100,2013-08-25 00:45:00,
2013-08-24 20:50:00,75.9,55.0,30.36,South,180,0.0,0.0,49,0.00,,,0.01,Rainwise IP-100,2013-08-25 00:50:00,
2013-08-24 20:55:00,75.9,55.0,30.36,South,180,0.0,0.0,49,0.00,,,0.01,Rainwise IP-100,2013-08-25 00:55:00,
2013-08-24 21:00:00,75.5,56.0,30.37,South,180,0.0,0.0,50,0.00,,,0.01,Rainwise IP-100,2013-08-25 01:00:00,
2013-08-24 21:05:00,75.4,56.0,30.37,South,180,0.0,0.0,50,0.00,,,0.01,Rainwise IP-100,2013-08-25 01:05:00,
2013-08-24 21:10:00,75.3,55.0,30.37,South,180,0.0,0.0,50,0.00,,,0.01,Rainwise IP-100,2013-08-25 01:10:00,
2013-08-24 21:15:00,75.3,55.0,30.37,South,180,0.0,0.0,50,0.00,,,0.01,Rainwise IP-100,2013-08-25 01:15:00,
2013-08-24 22:08:00,73.7,56.0,30.38,South,180,0.0,0.0,53,0.00,,,0.01,Rainwise IP-100,2013-08-25 02:08:00,
2013-08-24 22:13:00,73.7,56.0,30.38,South,180,0.0,0.0,53,0.00,,,0.01,Rainwise IP-100,2013-08-25 02:13:00,